This is the latest recevied weather packets stored in our database for station/object KD2ZLA. If no packets are shown the sender has not sent any weather packets the latest 10 day(s).
| Time | Temp. | Humidity | Pressure | Rain* | Wind** | Luminosity | Snow |
|---|---|---|---|---|---|---|---|
| 1777343827 | 11.11° C | 69% | 1019.8 hPa | 0 mm | - | 0 W/m² | - |
| 1777343525 | 11.67° C | 67% | 1019.6 hPa | 0 mm | - | 0 W/m² | - |
| 1777343222 | 11.67° C | 67% | 1019.8 hPa | 0 mm | - | 0 W/m² | - |
| 1777342919 | 11.67° C | 69% | 1020.1 hPa | 0 mm | - | 0 W/m² | - |
| 1777342616 | 11.67° C | 68% | 1020 hPa | 0 mm | - | 0 W/m² | - |
| 1777342313 | 11.67° C | 68% | 1020 hPa | 0 mm | - | 0 W/m² | - |
| 1777342010 | 11.67° C | 69% | 1020.1 hPa | 0 mm | - | 0 W/m² | - |
| 1777341707 | 12.22° C | 68% | 1019.9 hPa | 0 mm | - | 0 W/m² | - |
| 1777341403 | 12.78° C | 65% | 1020.2 hPa | 0 mm | - | 0 W/m² | - |
| 1777340796 | 13.33° C | 56% | 1020 hPa | 0 mm | - | 0 W/m² | - |
| 1777340495 | 13.89° C | 56% | 1020 hPa | 0 mm | - | 0 W/m² | - |
| 1777340192 | 13.89° C | 57% | 1020.1 hPa | 0 mm | - | 0 W/m² | - |
| 1777339888 | 13.33° C | 57% | 1020 hPa | 0 mm | - | 0 W/m² | - |
| 1777339283 | 13.33° C | 61% | 1020 hPa | 0 mm | - | 0 W/m² | - |
| 1777338981 | 13.89° C | 62% | 1020.2 hPa | 0 mm | - | 0 W/m² | - |
| 1777338678 | 13.89° C | 53% | 1019.9 hPa | 0 mm | - | 0 W/m² | - |
| 1777338376 | 13.89° C | 52% | 1020.2 hPa | 0 mm | - | 0 W/m² | - |
| 1777338072 | 14.44° C | 51% | 1020.3 hPa | 0 mm | - | 0 W/m² | - |
| 1777337466 | 15° C | 49% | 1020.1 hPa | 0 mm | - | 0 W/m² | - |
| 1777337162 | 15.56° C | 48% | 1020.3 hPa | 0 mm | - | 0 W/m² | - |
| 1777336559 | 15.56° C | 49% | 1020.2 hPa | 0 mm | - | 0 W/m² | - |
| 1777335954 | 16.11° C | 48% | 1020.1 hPa | 0 mm | - | 0 W/m² | - |
| 1777335650 | 16.11° C | 47% | 1020 hPa | 0 mm | - | 0 W/m² | - |
| 1777334742 | 17.78° C | 43% | 1019.9 hPa | 0 mm | - | 2 W/m² | - |
| 1777332626 | 21.11° C | 39% | 1020 hPa | 0 mm | - | 27 W/m² | - |
* Rain latest hour (hover to see other rain measurements)
** Current wind speed in m/s (hover to see current wind gust speed)